Location: The Saddle
(36.8333°N, 80.3417°W)
Time: 12:34:19
(UTC-05:00)

A-11 Canister half - Pass Details

Date: 16 December 2023
Orbit: 1512 x 1687 km, 47.2° (Epoch: 22 February)

Event Time Altitude Azimuth Distance (km) Brightness Sun altitude
Rises 18:07:14 0° 173° (S) 4,636 11.7 -11.9°
Reaches altitude 10° 18:12:20 10° 149° (SSE) 3,665 10.9 -12.8°
Maximum altitude 18:16:26 14° 122° (ESE) 3,388 10.4 -13.6°
Enters shadow 18:19:31 12° 101° (ESE) 3,573 10.4 -14.2°
Drops below altitude 10° 18:20:33 10° 95° (E) 3,703 - -14.4°
Sets 18:25:42 0° 72° (ENE) 4,721 - -15.4°
